Seward, AK

11:11 AM AKDT on March 27, 2017 (GMT -0800)
Seward

Weather History for PAWD - November, 2011

Change the Weather History Date:

Friday, November 18, 2011

  Actual Average Record
Temperature  
Mean Temperature 12 °F -  
Max Temperature 15 °F 34 °F 53 °F (2014)
Min Temperature 10 °F 26 °F 10 °F (2011)
Degree Days  
Heating Degree Days 52    
Moisture  
Dew Point -2 °F    
Average Humidity 52    
Maximum Humidity 64    
Minimum Humidity 45    
Precipitation  
Precipitation 0.00 in - - ()
Sea Level Pressure  
Sea Level Pressure 29.96 in    
Wind  
Wind Speed 20 mph (North)    
Max Wind Speed 30 mph    
Max Gust Speed 44 mph    
Visibility 10 miles    
Events      
Averages and records for this station are not official NWS values.
T = Trace of Precipitation, MM = Missing Value Source: NWS Daily Summary

Daily Weather History Graph

Daily Weather History Graph

Search for Another Location

Airport or City:

Trip Planner

Search our weather history database for the weather conditions in past years. The results will help you decide how hot, cold, wet, or windy it might be!

Date:

Astronomy

Nov. 18, 2011 Rise Set
Actual Time 9:03 AM AKST 4:21 PM AKST
Civil Twilight 8:13 AM AKST 5:11 PM AKST
Nautical Twilight 7:20 AM AKST 6:03 PM AKST
Astronomical Twilight 6:31 AM AKST 6:53 PM AKST
Moon No Moon Rise 1:54 PM AKST (11/18)
Length of Visible Light 8h 57m
Length of Day
7h 17m
Waning Gibbous, 47% of the Moon is Illuminated
Nov 18
Waning Gibbous
Nov 24
New
Dec 2
First Quarter
Dec 10
Full
Dec 17
Last Quarter

Hourly Weather History & Observations

Time (AKST) Temp. Windchill Dew Point Humidity Pressure Visibility Wind Dir Wind Speed Gust Speed Precip Events Conditions
12:53 AM 14.0 °F -3.0 °F -2.9 °F 47% 30.06 in 10.0 mi North 18.4 mph 25.3 mph N/A   Clear
1:53 AM 12.9 °F -2.8 °F -2.0 °F 51% 30.04 in 10.0 mi NNE 15.0 mph 25.3 mph N/A   Clear
3:53 AM 12.0 °F -3.4 °F -0.9 °F 56% 29.99 in 10.0 mi NNE 13.8 mph 23.0 mph N/A   Clear
4:53 AM 12.0 °F -4.5 °F -0.9 °F 56% 29.98 in 10.0 mi NNE 16.1 mph 24.2 mph N/A   Clear
5:53 AM 12.9 °F -2.2 °F -0.9 °F 54% 29.98 in 10.0 mi NNE 13.8 mph 21.9 mph N/A   Clear
6:53 AM 12.0 °F -4.5 °F -0.0 °F 59% 29.96 in 10.0 mi NNE 16.1 mph 27.6 mph N/A   Clear
7:53 AM 12.0 °F -5.6 °F 1.0 °F 61% 29.95 in 10.0 mi NNE 18.4 mph 29.9 mph N/A   Clear
8:53 AM 10.9 °F -8.3 °F 1.0 °F 64% 29.94 in 10.0 mi NNE 21.9 mph 29.9 mph N/A   Clear
9:53 AM 12.0 °F -9.2 °F -0.0 °F 59% 29.93 in 10.0 mi North 28.8 mph 34.5 mph N/A   Clear
10:53 AM 12.9 °F -6.9 °F -0.9 °F 54% 29.92 in 10.0 mi NNE 25.3 mph 33.4 mph N/A   Clear
11:53 AM 14.0 °F -2.5 °F -0.0 °F 54% 29.92 in 10.0 mi NNE 17.3 mph 33.4 mph N/A   Clear
12:53 PM 15.1 °F -2.9 °F -2.9 °F 45% 29.92 in 10.0 mi NNW 21.9 mph 38.0 mph N/A   Clear
1:53 PM 14.0 °F -4.7 °F -2.0 °F 49% 29.92 in 10.0 mi NNW 23.0 mph 33.4 mph N/A   Clear
2:53 PM 14.0 °F -5.8 °F -2.0 °F 49% 29.91 in 10.0 mi North 26.5 mph 43.7 mph N/A   Clear
3:53 PM 12.9 °F -4.9 °F -2.0 °F 51% 29.92 in 10.0 mi North 19.6 mph 38.0 mph N/A   Clear
4:53 PM 12.9 °F -5.3 °F -2.9 °F 49% 29.93 in 10.0 mi North 20.7 mph 36.8 mph N/A   Clear
5:53 PM 12.0 °F -9.5 °F -2.0 °F 53% 29.96 in 10.0 mi North 29.9 mph 42.6 mph N/A   Clear
6:53 PM 14.0 °F -6.5 °F -2.9 °F 47% 29.96 in 10.0 mi North 28.8 mph 40.3 mph N/A   Clear
7:53 PM 14.0 °F -6.5 °F -4.0 °F 45% 29.96 in 10.0 mi North 28.8 mph 41.4 mph N/A   Clear
8:53 PM 14.0 °F -5.5 °F -4.0 °F 45% 29.97 in 10.0 mi North 25.3 mph 39.1 mph N/A   Clear
9:53 PM 12.0 °F -6.5 °F -2.9 °F 51% 29.98 in 10.0 mi North 20.7 mph 33.4 mph N/A   Clear
10:53 PM 10.9 °F -7.9 °F -2.9 °F 54% 29.99 in 10.0 mi North 20.7 mph 32.2 mph N/A   Clear
11:53 PM 12.0 °F -7.7 °F -4.0 °F 49% 29.98 in 10.0 mi NNE 24.2 mph 38.0 mph N/A   Clear